Location: Caltech
(34.1382°N, 118.1253°W)
Time: 11:18:31
(UTC-08:00)

Tiros 1 despin weight - All Passes

Search period start: 28 November 2014 00:00
Search period end: 08 December 2014 00:00
Orbit: 600 x 651 km, 48.2° (Epoch: 28 November)

Date Brightness Start Highest point End Pass type
(mag) Time Alt. Az. Time Alt. Az. Time Alt. Az.
28 Nov - 01:04:50 10° WNW 01:09:29 58° SW 01:14:06 10° SE night (unlit)
28 Nov - 16:51:42 10° SSW 16:56:05 53° SE 17:00:34 10° ENE daylight
28 Nov - 18:33:56 10° W 18:37:59 31° NNW 18:42:06 10° NE visible
28 Nov - 20:18:15 10° NW 20:20:53 15° N 20:23:32 10° NNE visible
28 Nov - 22:00:53 10° NNW 22:04:06 18° NNE 22:07:19 10° ENE night (unlit)
28 Nov - 23:42:03 10° NW 23:46:39 52° NNE 23:51:16 10° ESE night (unlit)
29 Nov - 01:24:15 10° WNW 01:28:11 26° SW 01:32:07 10° S night (unlit)
29 Nov - 15:30:50 10° SSE 15:33:40 17° SE 15:36:31 10° E daylight
29 Nov - 17:10:25 10° WSW 17:14:56 73° NW 17:19:32 10° NE visible
29 Nov - 18:53:50 10° WNW 18:57:16 20° NNW 19:00:45 10° NNE visible
29 Nov - 20:37:55 10° NNW 20:40:25 14° N 20:42:56 10° NE night (unlit)
29 Nov - 22:19:34 10° NNW 22:23:27 25° NNE 22:27:21 10° ENE night (unlit)
30 Nov - 00:00:52 10° NW 00:05:36 80° SW 00:10:19 10° SE night (unlit)
30 Nov - 01:45:08 10° WSW 01:46:44 12° SW 01:48:21 10° SSW night (unlit)
30 Nov - 15:48:08 10° SSW 15:52:15 37° SE 15:56:27 10° ENE daylight
30 Nov - 17:29:43 10° W 17:33:57 38° NNW 17:38:16 10° NE visible
30 Nov - 19:13:54 10° NW 19:16:42 16° N 19:19:31 10° NNE visible
30 Nov - 20:57:01 10° NNW 20:59:55 16° N 21:02:50 10° NE night (unlit)
30 Nov - 22:38:13 10° NW 22:42:39 40° NNE 22:47:05 10° E night (unlit)
01 Dec - 00:20:01 10° WNW 00:24:21 37° SW 00:28:42 10° SSE night (unlit)
01 Dec - 14:28:42 10° SE 14:29:55 11° SE 14:31:08 10° ESE daylight
01 Dec - 16:06:31 10° SW 16:11:00 82° SE 16:15:36 10° NE daylight
01 Dec - 17:49:27 10° WNW 17:53:09 24° NNW 17:56:54 10° NNE visible
01 Dec - 19:33:45 10° NNW 19:36:12 14° N 19:38:39 10° NNE visible
01 Dec - 21:15:46 10° NNW 21:19:19 21° NNE 21:22:54 10° ENE night (unlit)
01 Dec - 22:56:56 10° NW 23:01:39 75° NE 23:06:22 10° ESE night (unlit)
02 Dec - 00:39:55 10° W 00:42:57 17° SW 00:46:00 10° S night (unlit)
02 Dec - 14:44:44 10° S 14:48:26 26° SE 14:52:11 10° ENE daylight
02 Dec - 16:25:33 10° WSW 16:29:56 50° NNW 16:34:23 10° NE daylight
02 Dec - 18:09:28 10° NW 18:12:30 17° NNW 18:15:34 10° NNE visible
02 Dec - 19:53:04 10° NNW 19:55:42 15° N 19:58:21 10° NE visible
02 Dec - 21:34:23 10° NW 21:38:34 32° NNE 21:42:47 10° E night (unlit)
02 Dec - 23:15:54 10° WNW 23:20:28 52° SW 23:25:03 10° SSE night (unlit)
03 Dec - 15:02:43 10° SW 15:07:05 58° SE 15:11:33 10° ENE daylight
03 Dec - 16:45:06 10° W 16:49:01 29° NNW 16:53:01 10° NE daylight
03 Dec - 18:29:27 10° NW 18:31:57 14° N 18:34:28 10° NNE visible
03 Dec - 20:11:54 10° NNW 20:15:08 18° NNE 20:18:23 10° ENE visible
03 Dec - 21:53:02 10° NW 21:57:38 56° NE 22:02:15 10° ESE night (unlit)
03 Dec - 23:35:20 10° WNW 23:39:07 24° SW 23:42:54 10° S night (unlit)
04 Dec - 13:41:36 10° S 13:44:36 18° SE 13:47:38 10° E daylight
04 Dec - 15:21:28 10° WSW 15:25:55 67° NW 15:30:27 10° NE daylight
04 Dec - 17:04:59 10° WNW 17:08:17 19° NNW 17:11:37 10° NNE visible
04 Dec - 18:49:00 10° NNW 18:51:26 14° N 18:53:53 10° NE visible
04 Dec - 20:30:31 10° NNW 20:34:25 26° NNE 20:38:21 10° E night (unlit)
04 Dec - 22:11:50 10° NW 22:16:30 74° SW 22:21:12 10° SE night (unlit)
04 Dec - 23:56:52 10° WSW 23:57:37 10° SW 23:58:22 10° SW night (unlit)
05 Dec - 13:59:01 10° SSW 14:03:11 40° SE 14:07:24 10° ENE daylight
05 Dec - 15:40:46 10° W 15:44:54 35° NNW 15:49:07 10° NE daylight
05 Dec - 17:25:01 10° NW 17:27:40 15° N 17:30:21 10° NNE visible
05 Dec - 19:07:59 10° NNW 19:10:53 16° NNE 19:13:48 10° NE visible
05 Dec - 20:49:07 10° NW 20:53:33 42° NNE 20:58:00 10° ESE night (unlit)
05 Dec - 22:30:59 10° WNW 22:35:12 34° SW 22:39:27 10° SSE night (unlit)
06 Dec - 12:39:04 10° SSE 12:40:46 12° SE 12:42:29 10° ESE daylight
06 Dec - 14:17:27 10° SW 14:21:54 88° SE 14:26:26 10° NE daylight
06 Dec - 16:00:31 10° WNW 16:04:05 22° NNW 16:07:41 10° NNE daylight
06 Dec - 17:44:48 10° NNW 17:47:08 14° N 17:49:29 10° NNE visible
06 Dec - 19:26:39 10° NNW 19:30:13 22° NNE 19:33:50 10° ENE visible
06 Dec - 21:07:49 10° NW 21:12:29 81° NE 21:17:11 10° SE night (unlit)
06 Dec - 22:51:00 10° W 22:53:45 16° SW 22:56:30 10° SSW night (unlit)
07 Dec - 12:55:29 10° SSW 12:59:16 28° SE 13:03:05 10° ENE daylight
07 Dec - 14:36:30 10° WSW 14:40:48 46° NNW 14:45:10 10° NE daylight
07 Dec - 16:20:30 10° NW 16:23:23 16° NNW 16:26:18 10° NNE daylight
07 Dec - 18:03:59 10° NNW 18:06:35 15° N 18:09:12 10° NE visible
07 Dec - 19:45:12 10° NW 19:49:24 33° NNE 19:53:38 10° E visible
07 Dec - 21:26:45 10° WNW 21:31:14 48° SW 21:35:45 10° SSE night (unlit)
